| time (UTC) | temp C | wind direction | speed KPH | gust KPH | rain 1hr cm | rain 24hr cm | rain mn cm | humidity % | barometer mb |
| 20260510194033 | 31 | 219 | 12.9 | 20.9 | 0.00 | 0.08 | 0.08 | 66 | 1016.4 |
| 20260510193532 | 31 | 238 | 8.0 | 20.9 | 0.00 | 0.08 | 0.08 | 67 | 1016.5 |
| 20260510193053 | 32 | 238 | 9.7 | 20.9 | 0.00 | 0.08 | 0.08 | 67 | 1016.4 |
| 20260510192534 | 32 | 255 | 8.0 | 19.3 | 0.00 | 0.08 | 0.08 | 66 | 1016.3 |
| 20260510192033 | 32 | 294 | 8.0 | 19.3 | 0.00 | 0.08 | 0.08 | 66 | 1016.4 |
| 20260510191545 | 31 | 212 | 8.0 | 19.3 | 0.00 | 0.08 | 0.08 | 66 | 1016.3 |
| 20260510191033 | 31 | 300 | 8.0 | 24.1 | 0.00 | 0.08 | 0.08 | 68 | 1016.4 |
| 20260510190532 | 31 | 221 | 8.0 | 24.1 | 0.03 | 0.08 | 0.08 | 69 | 1016.3 |
| 20260510190046 | 31 | 264 | 4.8 | 19.3 | 0.03 | 0.08 | 0.08 | 70 | 1016.3 |
| 20260510185536 | 31 | 227 | 4.8 | 19.3 | 0.08 | 0.08 | 0.08 | 73 | 1016.3 |
| 20260510185033 | 29 | 258 | 3.2 | 16.1 | 0.08 | 0.08 | 0.08 | 76 | 1016.6 |
| 20260510184553 | 28 | 219 | 1.6 | 17.7 | 0.08 | 0.08 | 0.08 | 81 | 1016.4 |
| 20260510184035 | 27 | 0 | 1.6 | 17.7 | 0.08 | 0.08 | 0.08 | 83 | 1016.3 |
| 20260510183532 | 27 | 46 | 8.0 | 17.7 | 0.08 | 0.08 | 0.08 | 83 | 1016.4 |
| 20260510183044 | 27 | 0 | 1.6 | 3.2 | 0.08 | 0.08 | 0.08 | 88 | 1016.4 |
| 20260510182534 | 27 | 0 | 0.0 | 1.6 | 0.08 | 0.08 | 0.08 | 84 | 1016.5 |
| 20260510182035 | 27 | 0 | 0.0 | 6.4 | 0.08 | 0.08 | 0.08 | 83 | 1016.5 |
| 20260510181538 | 27 | 0 | 1.6 | 6.4 | 0.08 | 0.08 | 0.08 | 80 | 1016.6 |
| 20260510181033 | 28 | 143 | 1.6 | 6.4 | 0.08 | 0.08 | 0.08 | 82 | 1016.7 |
| 20260510180533 | 28 | 0 | 0.0 | 14.5 | 0.05 | 0.05 | 0.05 | 80 | 1016.7 |
| 20260510180047 | 29 | 263 | 0.0 | 14.5 | 0.05 | 0.05 | 0.05 | 77 | 1016.6 |
| 20260510175532 | 31 | 259 | 6.4 | 19.3 | 0.00 | 0.00 | 0.00 | 69 | 1016.8 |
| 20260510175033 | 31 | 216 | 6.4 | 29.0 | 0.00 | 0.00 | 0.00 | 67 | 1016.6 |
| 20260510174544 | 32 | 286 | 11.3 | 29.0 | 0.00 | 0.00 | 0.00 | 64 | 1016.5 |
| 20260510174036 | 34 | 245 | 12.9 | 24.1 | 0.00 | 0.00 | 0.00 | 57 | 1016.6 |
| 20260510173533 | 34 | 243 | 12.9 | 24.1 | 0.00 | 0.00 | 0.00 | 59 | 1016.3 |
| 20260510173045 | 33 | 242 | 17.7 | 24.1 | 0.00 | 0.00 | 0.00 | 60 | 1016.5 |
| 20260510172533 | 33 | 207 | 9.7 | 22.5 | 0.00 | 0.00 | 0.00 | 59 | 1016.6 |
| 20260510172032 | 34 | 160 | 14.5 | 22.5 | 0.00 | 0.00 | 0.00 | 58 | 1016.8 |
| 20260510171548 | 34 | 198 | 16.1 | 22.5 | 0.00 | 0.00 | 0.00 | 58 | 1016.7 |
| 20260510171033 | 33 | 227 | 8.0 | 19.3 | 0.00 | 0.00 | 0.00 | 61 | 1016.8 |
| 20260510170535 | 33 | 207 | 8.0 | 20.9 | 0.00 | 0.00 | 0.00 | 61 | 1016.8 |
| 20260510170109 | 33 | 232 | 11.3 | 20.9 | 0.00 | 0.00 | 0.00 | 60 | 1016.8 |
| 20260510165533 | 33 | 240 | 12.9 | 20.9 | 0.00 | 0.00 | 0.00 | 62 | 1017.0 |
| 20260510165035 | 33 | 200 | 11.3 | 19.3 | 0.00 | 0.00 | 0.00 | 63 | 1017.1 |
| 20260510164559 | 33 | 169 | 8.0 | 19.3 | 0.00 | 0.00 | 0.00 | 63 | 1017.2 |
| 20260510164033 | 32 | 227 | 4.8 | 16.1 | 0.00 | 0.00 | 0.00 | 66 | 1017.3 |
| 20260510163534 | 32 | 233 | 8.0 | 16.1 | 0.00 | 0.00 | 0.00 | 65 | 1017.2 |
| 20260510163045 | 33 | 252 | 8.0 | 16.1 | 0.00 | 0.00 | 0.00 | 62 | 1017.3 |
| 20260510162533 | 34 | 220 | 6.4 | 16.1 | 0.00 | 0.00 | 0.00 | 63 | 1017.4 |
| 20260510162032 | 33 | 213 | 8.0 | 16.1 | 0.00 | 0.00 | 0.00 | 64 | 1017.4 |
| 20260510161544 | 33 | 134 | 6.4 | 14.5 | 0.00 | 0.00 | 0.00 | 63 | 1017.6 |
| 20260510161036 | 33 | 250 | 3.2 | 9.7 | 0.00 | 0.00 | 0.00 | 64 | 1017.6 |
| 20260510160535 | 32 | 181 | 3.2 | 19.3 | 0.00 | 0.00 | 0.00 | 67 | 1017.7 |
| 20260510160047 | 32 | 252 | 9.7 | 19.3 | 0.00 | 0.00 | 0.00 | 66 | 1017.7 |
| 20260510155533 | 32 | 227 | 11.3 | 19.3 | 0.00 | 0.00 | 0.00 | 67 | 1017.8 |
| 20260510155033 | 32 | 222 | 9.7 | 16.1 | 0.00 | 0.00 | 0.00 | 68 | 1017.7 |
| 20260510154545 | 32 | 222 | 4.8 | 16.1 | 0.00 | 0.00 | 0.00 | 68 | 1017.6 |
| 20260510154031 | 31 | 212 | 3.2 | 19.3 | 0.00 | 0.00 | 0.00 | 69 | 1017.5 |
| 20260510153532 | 32 | 221 | 8.0 | 19.3 | 0.00 | 0.00 | 0.00 | 69 | 1017.6 |
| 20260510153052 | 31 | 210 | 9.7 | 19.3 | 0.00 | 0.00 | 0.00 | 68 | 1017.7 |
| 20260510152533 | 32 | 245 | 4.8 | 17.7 | 0.00 | 0.00 | 0.00 | 68 | 1017.6 |
| 20260510152033 | 32 | 191 | 8.0 | 19.3 | 0.00 | 0.00 | 0.00 | 68 | 1017.6 |
| 20260510151552 | 32 | 217 | 8.0 | 19.3 | 0.00 | 0.00 | 0.00 | 69 | 1017.5 |
| 20260510151036 | 32 | 237 | 6.4 | 16.1 | 0.00 | 0.00 | 0.00 | 69 | 1017.6 |
| 20260510150536 | 32 | 211 | 4.8 | 12.9 | 0.00 | 0.00 | 0.00 | 70 | 1017.5 |
| 20260510150048 | 31 | 120 | 3.2 | 6.4 | 0.00 | 0.00 | 0.00 | 71 | 1017.5 |
| 20260510145535 | 31 | 203 | 1.6 | 19.3 | 0.00 | 0.00 | 0.00 | 73 | 1017.6 |
| 20260510145035 | 30 | 134 | 6.4 | 19.3 | 0.00 | 0.00 | 0.00 | 74 | 1017.8 |
| 20260510144548 | 30 | 0 | 3.2 | 11.3 | 0.00 | 0.00 | 0.00 | 74 | 1017.8 |
| 20260510144033 | 30 | 200 | 3.2 | 11.3 | 0.00 | 0.00 | 0.00 | 76 | 1017.9 |
| 20260510143534 | 29 | 210 | 1.6 | 11.3 | 0.00 | 0.00 | 0.00 | 76 | 1017.8 |
| 20260510143043 | 29 | 212 | 1.6 | 16.1 | 0.00 | 0.00 | 0.00 | 75 | 1017.8 |
| 20260510142535 | 30 | 214 | 8.0 | 16.1 | 0.00 | 0.00 | 0.00 | 74 | 1017.7 |
| 20260510142037 | 30 | 226 | 3.2 | 14.5 | 0.00 | 0.00 | 0.00 | 75 | 1017.7 |
| 20260510141547 | 30 | 235 | 3.2 | 16.1 | 0.00 | 0.00 | 0.00 | 73 | 1017.6 |
| 20260510141036 | 30 | 210 | 3.2 | 16.1 | 0.00 | 0.00 | 0.00 | 75 | 1017.6 |
| 20260510140535 | 30 | 157 | 6.4 | 16.1 | 0.00 | 0.00 | 0.00 | 76 | 1017.5 |
| 20260510140042 | 30 | 241 | 1.6 | 6.4 | 0.00 | 0.00 | 0.00 | 76 | 1017.5 |
| 20260510135538 | 30 | 115 | 3.2 | 6.4 | 0.00 | 0.00 | 0.00 | 77 | 1017.4 |
| 20260510135038 | 29 | 149 | 1.6 | 8.0 | 0.00 | 0.00 | 0.00 | 78 | 1017.5 |
| 20260510134544 | 28 | 239 | 3.2 | 8.0 | 0.00 | 0.00 | 0.00 | 79 | 1017.5 |
| 20260510134039 | 28 | 167 | 4.8 | 11.3 | 0.00 | 0.00 | 0.00 | 79 | 1017.6 |
| 20260510133535 | 28 | 141 | 3.2 | 11.3 | 0.00 | 0.00 | 0.00 | 80 | 1017.4 |
| 20260510133044 | 28 | 0 | 3.2 | 9.7 | 0.00 | 0.00 | 0.00 | 81 | 1017.5 |
| 20260510132536 | 27 | 148 | 1.6 | 4.8 | 0.00 | 0.00 | 0.00 | 82 | 1017.3 |
| 20260510132037 | 27 | 0 | 1.6 | 4.8 | 0.00 | 0.00 | 0.00 | 83 | 1017.4 |
| 20260510131545 | 26 | 155 | 1.6 | 4.8 | 0.00 | 0.00 | 0.00 | 85 | 1017.3 |
| 20260510131033 | 26 | 0 | 0.0 | 9.7 | 0.00 | 0.00 | 0.00 | 85 | 1017.4 |
| 20260510130533 | 26 | 150 | 1.6 | 9.7 | 0.00 | 0.00 | 0.00 | 85 | 1017.4 |
| 20260510130048 | 26 | 214 | 1.6 | 9.7 | 0.00 | 0.00 | 0.00 | 85 | 1017.4 |
| 20260510125538 | 26 | 136 | 1.6 | 6.4 | 0.00 | 0.00 | 0.00 | 85 | 1017.3 |
| 20260510125033 | 26 | 158 | 0.0 | 6.4 | 0.00 | 0.00 | 0.00 | 87 | 1017.3 |
| 20260510124552 | 26 | 141 | 1.6 | 6.4 | 0.00 | 0.00 | 0.00 | 87 | 1017.2 |
| 20260510124040 | 26 | 0 | 0.0 | 4.8 | 0.00 | 0.00 | 0.00 | 88 | 1017.2 |
| 20260510123533 | 26 | 156 | 1.6 | 4.8 | 0.00 | 0.00 | 0.00 | 89 | 1017.1 |
| 20260510123046 | 25 | 146 | 1.6 | 4.8 | 0.00 | 0.00 | 0.00 | 90 | 1017.2 |
| 20260510122536 | 25 | 150 | 0.0 | 3.2 | 0.00 | 0.00 | 0.00 | 91 | 1017.2 |
| 20260510122035 | 25 | 0 | 0.0 | 3.2 | 0.00 | 0.00 | 0.00 | 92 | 1017.1 |
| 20260510121546 | 24 | 0 | 0.0 | 3.2 | 0.00 | 0.00 | 0.00 | 93 | 1016.9 |
| 20260510121035 | 24 | 0 | 0.0 | 1.6 | 0.00 | 0.00 | 0.00 | 94 | 1016.8 |
| 20260510120535 | 23 | 153 | 0.0 | 3.2 | 0.00 | 0.00 | 0.00 | 95 | 1016.8 |
| 20260510120043 | 23 | 0 | 0.0 | 3.2 | 0.00 | 0.00 | 0.00 | 96 | 1016.8 |
| 20260510115533 | 23 | 0 | 0.0 | 3.2 | 0.00 | 0.00 | 0.00 | 96 | 1016.6 |
| 20260510115033 | 23 | 0 | 0.0 | 3.2 | 0.00 | 0.00 | 0.00 | 98 | 1016.6 |
| 20260510114550 | 23 | 146 | 0.0 | 3.2 | 0.00 | 0.00 | 0.00 | 98 | 1016.6 |
| 20260510114036 | 22 | 0 | 0.0 | 3.2 | 0.00 | 0.00 | 0.00 | 99 | 1016.5 |
| 20260510113537 | 22 | 0 | 0.0 | 1.6 | 0.00 | 0.00 | 0.00 | 99 | 1016.5 |
| 20260510113042 | 22 | 0 | 0.0 | 1.6 | 0.00 | 0.00 | 0.00 | 100 | 1016.5 |
| 20260510112537 | 22 | 0 | 0.0 | 0.0 | 0.00 | 0.00 | 0.00 | 100 | 1016.3 |
| 20260510112033 | 21 | 0 | 0.0 | 0.0 | 0.00 | 0.00 | 0.00 | 100 | 1016.2 |
| 20260510111545 | 21 | 0 | 0.0 | 0.0 | 0.00 | 0.00 | 0.00 | 100 | 1016.0 |
| 20260510111033 | 21 | 0 | 0.0 | 0.0 | 0.00 | 0.00 | 0.00 | 100 | 1016.0 |
| 20260510110533 | 21 | 0 | 0.0 | 0.0 | 0.00 | 0.00 | 0.00 | 100 | 1015.9 |
| 20260510110046 | 21 | 0 | 0.0 | 0.0 | 0.00 | 0.00 | 0.00 | 100 | 1015.9 |
| 20260510105533 | 21 | 0 | 0.0 | 0.0 | 0.00 | 0.00 | 0.00 | 100 | 1015.7 |
| 20260510105033 | 21 | 0 | 0.0 | 0.0 | 0.00 | 0.00 | 0.00 | 100 | 1015.7 |
| 20260510104553 | 21 | 0 | 0.0 | 0.0 | 0.00 | 0.00 | 0.00 | 100 | 1015.8 |
| 20260510104035 | 21 | 0 | 0.0 | 0.0 | 0.00 | 0.00 | 0.00 | 99 | 1015.8 |
| 20260510103535 | 21 | 0 | 0.0 | 0.0 | 0.00 | 0.00 | 0.00 | 99 | 1015.7 |
| 20260510103044 | 21 | 0 | 0.0 | 0.0 | 0.00 | 0.00 | 0.00 | 99 | 1015.6 |
| 20260510102536 | 21 | 0 | 0.0 | 0.0 | 0.00 | 0.00 | 0.00 | 99 | 1015.6 |
| 20260510102036 | 21 | 0 | 0.0 | 0.0 | 0.00 | 0.00 | 0.00 | 99 | 1015.4 |
| 20260510101544 | 21 | 0 | 0.0 | 0.0 | 0.00 | 0.00 | 0.00 | 99 | 1015.3 |
| 20260510101036 | 21 | 0 | 0.0 | 0.0 | 0.00 | 0.00 | 0.00 | 99 | 1015.2 |
| 20260510100535 | 21 | 0 | 0.0 | 0.0 | 0.00 | 0.00 | 0.00 | 99 | 1015.1 |
| 20260510100046 | 21 | 0 | 0.0 | 0.0 | 0.00 | 0.00 | 0.00 | 98 | 1015.1 |
| 20260510095533 | 21 | 0 | 0.0 | 0.0 | 0.00 | 0.00 | 0.00 | 98 | 1015.2 |
| 20260510095034 | 21 | 0 | 0.0 | 0.0 | 0.00 | 0.00 | 0.00 | 98 | 1014.9 |
| 20260510094545 | 21 | 0 | 0.0 | 0.0 | 0.00 | 0.00 | 0.00 | 98 | 1014.9 |
| 20260510094033 | 21 | 0 | 0.0 | 0.0 | 0.00 | 0.00 | 0.00 | 98 | 1014.8 |
| 20260510093535 | 22 | 0 | 0.0 | 0.0 | 0.00 | 0.00 | 0.00 | 98 | 1014.6 |
| 20260510093049 | 22 | 0 | 0.0 | 0.0 | 0.00 | 0.00 | 0.00 | 98 | 1014.6 |
| 20260510092533 | 22 | 0 | 0.0 | 0.0 | 0.00 | 0.00 | 0.00 | 98 | 1014.7 |
| 20260510092033 | 22 | 0 | 0.0 | 0.0 | 0.00 | 0.00 | 0.00 | 98 | 1014.5 |
| 20260510091550 | 22 | 0 | 0.0 | 0.0 | 0.00 | 0.00 | 0.00 | 98 | 1014.5 |
| 20260510091032 | 22 | 0 | 0.0 | 0.0 | 0.00 | 0.00 | 0.00 | 97 | 1014.5 |
| 20260510090539 | 22 | 0 | 0.0 | 0.0 | 0.00 | 0.00 | 0.00 | 97 | 1014.4 |
| 20260510090112 | 22 | 0 | 0.0 | 0.0 | 0.00 | 0.00 | 0.00 | 97 | 1014.5 |
| 20260510085535 | 22 | 0 | 0.0 | 0.0 | 0.00 | 0.00 | 0.00 | 97 | 1014.3 |
| 20260510085037 | 22 | 0 | 0.0 | 0.0 | 0.00 | 0.00 | 0.00 | 97 | 1014.2 |
| 20260510084542 | 22 | 0 | 0.0 | 0.0 | 0.00 | 0.00 | 0.00 | 97 | 1014.1 |
| 20260510084036 | 22 | 0 | 0.0 | 0.0 | 0.00 | 0.00 | 0.00 | 97 | 1014.3 |
| 20260510083535 | 22 | 0 | 0.0 | 0.0 | 0.00 | 0.00 | 0.00 | 97 | 1014.3 |
| 20260510083058 | 22 | 0 | 0.0 | 0.0 | 0.00 | 0.00 | 0.00 | 97 | 1014.3 |
| 20260510082536 | 22 | 0 | 0.0 | 0.0 | 0.00 | 0.00 | 0.00 | 97 | 1014.3 |
| 20260510082033 | 22 | 0 | 0.0 | 0.0 | 0.00 | 0.00 | 0.00 | 97 | 1014.1 |
| 20260510081544 | 22 | 0 | 0.0 | 0.0 | 0.00 | 0.00 | 0.00 | 97 | 1014.2 |
| 20260510081033 | 22 | 0 | 0.0 | 0.0 | 0.00 | 0.00 | 0.00 | 97 | 1014.2 |
| 20260510080532 | 22 | 0 | 0.0 | 0.0 | 0.00 | 0.00 | 0.00 | 97 | 1014.2 |
| 20260510080045 | 22 | 0 | 0.0 | 0.0 | 0.00 | 0.00 | 0.00 | 97 | 1014.3 |
| 20260510075532 | 22 | 0 | 0.0 | 0.0 | 0.00 | 0.00 | 0.00 | 97 | 1014.3 |
| 20260510075032 | 22 | 0 | 0.0 | 0.0 | 0.00 | 0.00 | 0.00 | 97 | 1014.3 |
| 20260510074544 | 22 | 0 | 0.0 | 0.0 | 0.00 | 0.00 | 0.00 | 97 | 1014.3 |
| 20260510074034 | 22 | 0 | 0.0 | 0.0 | 0.00 | 0.00 | 0.00 | 97 | 1014.4 |
| 20260510073535 | 22 | 0 | 0.0 | 0.0 | 0.00 | 0.00 | 0.00 | 97 | 1014.5 |
| 20260510073044 | 22 | 0 | 0.0 | 0.0 | 0.00 | 0.00 | 0.00 | 97 | 1014.6 |
| 20260510072535 | 22 | 0 | 0.0 | 0.0 | 0.00 | 0.00 | 0.00 | 97 | 1014.6 |
| 20260510072033 | 22 | 0 | 0.0 | 0.0 | 0.00 | 0.00 | 0.00 | 96 | 1014.5 |
| 20260510071543 | 22 | 0 | 0.0 | 1.6 | 0.00 | 0.00 | 0.00 | 96 | 1014.6 |
| 20260510071033 | 22 | 0 | 0.0 | 1.6 | 0.00 | 0.00 | 0.00 | 96 | 1014.6 |
| 20260510070533 | 22 | 0 | 0.0 | 0.0 | 0.00 | 0.00 | 0.00 | 96 | 1014.6 |
| 20260510070040 | 22 | 0 | 0.0 | 0.0 | 0.00 | 0.00 | 0.00 | 96 | 1014.7 |
| 20260510065535 | 22 | 0 | 0.0 | 0.0 | 0.00 | 0.00 | 0.00 | 96 | 1014.7 |
| 20260510065033 | 22 | 0 | 0.0 | 0.0 | 0.00 | 0.00 | 0.00 | 96 | 1014.8 |
| 20260510064545 | 22 | 0 | 0.0 | 0.0 | 0.00 | 0.00 | 0.00 | 95 | 1014.8 |
| 20260510064034 | 22 | 0 | 0.0 | 0.0 | 0.00 | 0.00 | 0.00 | 95 | 1014.9 |
| 20260510063534 | 23 | 0 | 0.0 | 0.0 | 0.00 | 0.00 | 0.00 | 95 | 1015.0 |
| 20260510063044 | 23 | 0 | 0.0 | 1.6 | 0.00 | 0.00 | 0.00 | 95 | 1015.2 |
| 20260510062535 | 23 | 0 | 0.0 | 1.6 | 0.00 | 0.00 | 0.00 | 95 | 1015.2 |
| 20260510062032 | 23 | 0 | 0.0 | 1.6 | 0.00 | 0.00 | 0.00 | 95 | 1015.2 |
| 20260510061546 | 23 | 0 | 0.0 | 1.6 | 0.00 | 0.00 | 0.00 | 95 | 1015.2 |
| 20260510061036 | 23 | 123 | 0.0 | 1.6 | 0.00 | 0.00 | 0.00 | 95 | 1015.4 |
| 20260510060534 | 23 | 0 | 0.0 | 1.6 | 0.00 | 0.00 | 0.00 | 94 | 1015.3 |
| 20260510060044 | 23 | 0 | 0.0 | 1.6 | 0.00 | 0.00 | 0.00 | 94 | 1015.4 |
| 20260510055536 | 23 | 0 | 0.0 | 1.6 | 0.00 | 0.00 | 0.00 | 94 | 1015.6 |
| 20260510055035 | 23 | 0 | 0.0 | 3.2 | 0.00 | 0.00 | 0.00 | 94 | 1015.8 |
| 20260510054541 | 23 | 0 | 0.0 | 3.2 | 0.00 | 0.00 | 0.00 | 95 | 1015.9 |
| 20260510054033 | 23 | 73 | 0.0 | 3.2 | 0.00 | 0.00 | 0.00 | 95 | 1015.9 |
| 20260510053609 | 23 | 0 | 1.6 | 3.2 | 0.00 | 0.00 | 0.00 | 95 | 1015.8 |
| 20260510053049 | 23 | 0 | 0.0 | 1.6 | 0.00 | 0.00 | 0.00 | 96 | 1016.0 |
| 20260510052537 | 23 | 0 | 0.0 | 1.6 | 0.00 | 0.00 | 0.00 | 96 | 1016.1 |
| 20260510052033 | 23 | 0 | 0.0 | 1.6 | 0.00 | 0.00 | 0.00 | 97 | 1016.0 |
| 20260510051550 | 23 | 0 | 0.0 | 0.0 | 0.00 | 0.00 | 0.00 | 97 | 1015.9 |
| 20260510051035 | 23 | 0 | 0.0 | 0.0 | 0.00 | 0.00 | 0.00 | 97 | 1016.1 |
| 20260510050532 | 23 | 0 | 0.0 | 0.0 | 0.00 | 0.00 | 0.00 | 97 | 1015.9 |
| 20260510050045 | 23 | 0 | 0.0 | 0.0 | 0.00 | 0.00 | 0.00 | 97 | 1015.9 |
| 20260510045537 | 23 | 0 | 0.0 | 0.0 | 0.00 | 0.00 | 0.00 | 98 | 1016.1 |
| 20260510045036 | 23 | 0 | 0.0 | 0.0 | 0.00 | 0.00 | 0.00 | 97 | 1016.3 |
| 20260510044544 | 23 | 0 | 0.0 | 0.0 | 0.00 | 0.00 | 0.00 | 97 | 1016.2 |
| 20260510044034 | 23 | 0 | 0.0 | 0.0 | 0.00 | 0.00 | 0.00 | 97 | 1016.3 |
| 20260510043532 | 23 | 0 | 0.0 | 0.0 | 0.00 | 0.00 | 0.00 | 98 | 1016.2 |
| 20260510043043 | 23 | 0 | 0.0 | 0.0 | 0.00 | 0.00 | 0.00 | 98 | 1016.2 |
| 20260510042533 | 23 | 0 | 0.0 | 0.0 | 0.00 | 0.00 | 0.00 | 97 | 1016.3 |
| 20260510042036 | 23 | 0 | 0.0 | 0.0 | 0.00 | 0.00 | 0.00 | 97 | 1016.3 |
| 20260510041553 | 23 | 0 | 0.0 | 0.0 | 0.00 | 0.00 | 0.00 | 97 | 1016.3 |
| 20260510041033 | 23 | 0 | 0.0 | 0.0 | 0.00 | 0.00 | 0.00 | 97 | 1016.2 |
| 20260510040539 | 23 | 0 | 0.0 | 0.0 | 0.00 | 0.00 | 0.00 | 97 | 1016.2 |
| 20260510040050 | 23 | 0 | 0.0 | 0.0 | 0.00 | 0.00 | 0.00 | 97 | 1016.2 |
| 20260510035533 | 23 | 0 | 0.0 | 0.0 | 0.00 | 0.00 | 0.00 | 96 | 1016.1 |
| 20260510035034 | 23 | 0 | 0.0 | 0.0 | 0.00 | 0.00 | 0.00 | 96 | 1016.2 |
| 20260510034549 | 23 | 0 | 0.0 | 0.0 | 0.00 | 0.00 | 0.00 | 96 | 1016.0 |
| 20260510034034 | 23 | 0 | 0.0 | 0.0 | 0.00 | 0.00 | 0.00 | 96 | 1016.1 |
| 20260510033532 | 23 | 0 | 0.0 | 1.6 | 0.00 | 0.00 | 0.00 | 96 | 1016.0 |
| 20260510033051 | 23 | 0 | 0.0 | 1.6 | 0.00 | 0.00 | 0.00 | 96 | 1016.0 |
| 20260510032533 | 23 | 224 | 0.0 | 0.0 | 0.00 | 0.00 | 0.00 | 95 | 1015.9 |
| 20260510032032 | 23 | 0 | 0.0 | 0.0 | 0.00 | 0.00 | 0.00 | 95 | 1015.9 |
| 20260510031544 | 23 | 0 | 0.0 | 0.0 | 0.00 | 0.00 | 0.00 | 94 | 1015.8 |
| 20260510031033 | 23 | 0 | 0.0 | 0.0 | 0.00 | 0.00 | 0.00 | 94 | 1015.8 |
| 20260510030532 | 23 | 0 | 0.0 | 0.0 | 0.00 | 0.00 | 0.00 | 94 | 1015.7 |
| 20260510030042 | 23 | 0 | 0.0 | 0.0 | 0.00 | 0.00 | 0.00 | 94 | 1015.9 |
| 20260510025534 | 24 | 0 | 0.0 | 0.0 | 0.00 | 0.00 | 0.00 | 93 | 1015.9 |
| 20260510025036 | 24 | 0 | 0.0 | 0.0 | 0.00 | 0.00 | 0.00 | 92 | 1015.9 |
| 20260510024552 | 24 | 0 | 0.0 | 0.0 | 0.00 | 0.00 | 0.00 | 91 | 1016.0 |
| 20260510024033 | 24 | 0 | 0.0 | 0.0 | 0.00 | 0.00 | 0.00 | 91 | 1016.0 |
| 20260510023535 | 24 | 0 | 0.0 | 1.6 | 0.00 | 0.00 | 0.00 | 90 | 1016.0 |
| 20260510023046 | 24 | 0 | 0.0 | 1.6 | 0.00 | 0.00 | 0.00 | 90 | 1016.0 |
| 20260510022537 | 24 | 0 | 0.0 | 0.0 | 0.00 | 0.00 | 0.00 | 90 | 1015.9 |
| 20260510022033 | 24 | 0 | 0.0 | 0.0 | 0.00 | 0.00 | 0.00 | 90 | 1015.8 |
| 20260510021546 | 24 | 0 | 0.0 | 0.0 | 0.00 | 0.00 | 0.00 | 90 | 1016.0 |
| 20260510021032 | 24 | 0 | 0.0 | 0.0 | 0.00 | 0.00 | 0.00 | 89 | 1015.9 |
| 20260510020533 | 24 | 0 | 0.0 | 0.0 | 0.00 | 0.00 | 0.00 | 89 | 1015.9 |
| 20260510020044 | 24 | 0 | 0.0 | 0.0 | 0.00 | 0.00 | 0.00 | 89 | 1015.7 |
| 20260510015533 | 24 | 0 | 0.0 | 0.0 | 0.00 | 0.00 | 0.00 | 88 | 1015.4 |
| 20260510015032 | 24 | 0 | 0.0 | 0.0 | 0.00 | 0.00 | 0.00 | 88 | 1015.5 |
| 20260510014545 | 25 | 0 | 0.0 | 0.0 | 0.00 | 0.00 | 0.00 | 88 | 1015.3 |
| 20260510014034 | 25 | 0 | 0.0 | 0.0 | 0.00 | 0.00 | 0.00 | 87 | 1015.2 |
| 20260510013533 | 25 | 0 | 0.0 | 1.6 | 0.00 | 0.00 | 0.00 | 87 | 1015.2 |
| 20260510013042 | 25 | 0 | 0.0 | 1.6 | 0.00 | 0.00 | 0.00 | 87 | 1015.1 |
| 20260510012533 | 25 | 0 | 0.0 | 0.0 | 0.00 | 0.00 | 0.00 | 86 | 1015.1 |
| 20260510012035 | 25 | 0 | 0.0 | 0.0 | 0.00 | 0.00 | 0.00 | 86 | 1015.0 |
| 20260510011540 | 25 | 0 | 0.0 | 0.0 | 0.00 | 0.00 | 0.00 | 85 | 1015.0 |
| 20260510011032 | 25 | 0 | 0.0 | 0.0 | 0.00 | 0.00 | 0.00 | 84 | 1015.0 |
| 20260510010534 | 25 | 0 | 0.0 | 0.0 | 0.00 | 0.00 | 0.00 | 84 | 1014.9 |
| 20260510010045 | 26 | 224 | 0.0 | 1.6 | 0.00 | 0.00 | 0.00 | 84 | 1014.8 |
| 20260510005533 | 26 | 0 | 0.0 | 1.6 | 0.00 | 0.00 | 0.00 | 83 | 1014.7 |
| 20260510005033 | 26 | 219 | 0.0 | 1.6 | 0.00 | 0.00 | 0.00 | 83 | 1014.7 |
| 20260510004547 | 26 | 228 | 0.0 | 3.2 | 0.00 | 0.00 | 0.00 | 83 | 1014.6 |
| 20260510004032 | 26 | 0 | 0.0 | 3.2 | 0.00 | 0.00 | 0.00 | 82 | 1014.5 |
| 20260510003533 | 26 | 246 | 0.0 | 3.2 | 0.00 | 0.00 | 0.00 | 82 | 1014.5 |
| 20260510003057 | 26 | 259 | 1.6 | 3.2 | 0.00 | 0.00 | 0.00 | 82 | 1014.3 |
| 20260510002535 | 26 | 220 | 1.6 | 6.4 | 0.00 | 0.00 | 0.00 | 81 | 1014.3 |
| 20260510002035 | 26 | 248 | 1.6 | 6.4 | 0.00 | 0.00 | 0.00 | 81 | 1014.3 |
| 20260510001542 | 26 | 231 | 0.0 | 6.4 | 0.00 | 0.00 | 0.00 | 80 | 1014.2 |
| 20260510001036 | 27 | 0 | 1.6 | 9.7 | 0.00 | 0.00 | 0.00 | 78 | 1014.3 |
| 20260510000535 | 27 | 249 | 3.2 | 9.7 | 0.00 | 0.00 | 0.00 | 78 | 1014.3 |
| 20260510000041 | 27 | 268 | 3.2 | 11.3 | 0.00 | 0.00 | 0.00 | 76 | 1014.2 |
| 20260509235535 | 27 | 245 | 6.4 | 20.9 | 0.00 | 0.00 | 0.00 | 75 | 1014.1 |
| 20260509235033 | 27 | 278 | 3.2 | 20.9 | 0.00 | 0.00 | 0.00 | 73 | 1014.1 |
| 20260509234543 | 27 | 196 | 3.2 | 20.9 | 0.00 | 0.00 | 0.00 | 72 | 1014.0 |
| 20260509234033 | 28 | 254 | 3.2 | 11.3 | 0.00 | 0.00 | 0.00 | 70 | 1013.9 |
| 20260509233533 | 28 | 248 | 3.2 | 16.1 | 0.00 | 0.00 | 0.00 | 67 | 1013.8 |
| 20260509233047 | 28 | 221 | 6.4 | 16.1 | 0.00 | 0.00 | 0.00 | 65 | 1013.8 |
| 20260509232535 | 28 | 246 | 4.8 | 16.1 | 0.00 | 0.00 | 0.00 | 63 | 1013.6 |
| 20260509232033 | 28 | 250 | 4.8 | 14.5 | 0.00 | 0.00 | 0.00 | 62 | 1013.7 |
| 20260509231545 | 29 | 231 | 4.8 | 14.5 | 0.00 | 0.00 | 0.00 | 60 | 1013.6 |
| 20260509231032 | 29 | 250 | 8.0 | 14.5 | 0.00 | 0.00 | 0.00 | 59 | 1013.6 |
| 20260509230532 | 29 | 242 | 6.4 | 20.9 | 0.00 | 0.00 | 0.00 | 57 | 1013.5 |
| 20260509230050 | 30 | 195 | 9.7 | 20.9 | 0.00 | 0.00 | 0.00 | 56 | 1013.7 |
| 20260509225535 | 30 | 279 | 8.0 | 19.3 | 0.00 | 0.00 | 0.00 | 55 | 1013.5 |
| 20260509225032 | 30 | 264 | 9.7 | 19.3 | 0.00 | 0.00 | 0.00 | 54 | 1013.3 |
| 20260509224556 | 30 | 242 | 8.0 | 17.7 | 0.00 | 0.00 | 0.00 | 55 | 1013.4 |
| 20260509224037 | 30 | 265 | 11.3 | 17.7 | 0.00 | 0.00 | 0.00 | 57 | 1013.3 |
| 20260509223535 | 30 | 233 | 8.0 | 20.9 | 0.00 | 0.00 | 0.00 | 56 | 1013.2 |
| 20260509223048 | 31 | 244 | 9.7 | 20.9 | 0.00 | 0.00 | 0.00 | 56 | 1013.2 |
| 20260509222536 | 31 | 278 | 11.3 | 20.9 | 0.00 | 0.00 | 0.00 | 56 | 1013.0 |
| 20260509222036 | 31 | 245 | 11.3 | 20.9 | 0.00 | 0.00 | 0.00 | 56 | 1012.9 |
| 20260509221548 | 31 | 220 | 9.7 | 17.7 | 0.00 | 0.00 | 0.00 | 56 | 1012.8 |
| 20260509221035 | 31 | 264 | 9.7 | 19.3 | 0.00 | 0.00 | 0.00 | 56 | 1012.8 |
| 20260509220533 | 32 | 233 | 9.7 | 19.3 | 0.00 | 0.00 | 0.00 | 56 | 1012.8 |
| 20260509220049 | 32 | 247 | 11.3 | 19.3 | 0.00 | 0.00 | 0.00 | 55 | 1012.8 |
| 20260509215536 | 32 | 208 | 12.9 | 19.3 | 0.00 | 0.00 | 0.00 | 55 | 1012.5 |
| 20260509215033 | 32 | 218 | 8.0 | 17.7 | 0.00 | 0.00 | 0.00 | 55 | 1012.5 |
| 20260509214547 | 32 | 221 | 11.3 | 17.7 | 0.00 | 0.00 | 0.00 | 55 | 1012.5 |
| 20260509214035 | 32 | 250 | 8.0 | 17.7 | 0.00 | 0.00 | 0.00 | 55 | 1012.6 |
| 20260509213536 | 32 | 218 | 12.9 | 20.9 | 0.00 | 0.00 | 0.00 | 54 | 1012.6 |
| 20260509213057 | 33 | 219 | 12.9 | 20.9 | 0.00 | 0.00 | 0.00 | 54 | 1012.4 |
| 20260509212532 | 33 | 256 | 12.9 | 22.5 | 0.00 | 0.00 | 0.00 | 54 | 1012.4 |
| 20260509212035 | 34 | 236 | 14.5 | 22.5 | 0.00 | 0.00 | 0.00 | 54 | 1012.3 |
| 20260509211544 | 33 | 242 | 11.3 | 20.9 | 0.00 | 0.00 | 0.00 | 54 | 1012.2 |
| 20260509211034 | 33 | 214 | 12.9 | 22.5 | 0.00 | 0.00 | 0.00 | 54 | 1012.4 |
| 20260509210533 | 33 | 212 | 11.3 | 22.5 | 0.00 | 0.00 | 0.00 | 53 | 1012.1 |
| 20260509210048 | 33 | 283 | 12.9 | 22.5 | 0.00 | 0.00 | 0.00 | 51 | 1012.2 |
| 20260509205533 | 34 | 246 | 9.7 | 19.3 | 0.00 | 0.00 | 0.00 | 51 | 1012.1 |
| 20260509205039 | 34 | 260 | 12.9 | 22.5 | 0.00 | 0.00 | 0.00 | 52 | 1012.2 |
| 20260509204542 | 33 | 216 | 12.9 | 22.5 | 0.00 | 0.00 | 0.00 | 52 | 1012.2 |
| 20260509204032 | 34 | 238 | 14.5 | 20.9 | 0.00 | 0.00 | 0.00 | 51 | 1012.3 |
| 20260509203533 | 34 | 205 | 14.5 | 24.1 | 0.00 | 0.00 | 0.00 | 52 | 1012.2 |
| 20260509203052 | 34 | 207 | 14.5 | 24.1 | 0.00 | 0.00 | 0.00 | 52 | 1012.0 |
| 20260509202532 | 34 | 200 | 9.7 | 24.1 | 0.00 | 0.00 | 0.00 | 51 | 1012.0 |
| 20260509202033 | 33 | 238 | 14.5 | 24.1 | 0.00 | 0.00 | 0.00 | 52 | 1012.1 |
| 20260509201546 | 33 | 238 | 14.5 | 22.5 | 0.00 | 0.00 | 0.00 | 52 | 1012.2 |
| 20260509201033 | 33 | 257 | 14.5 | 24.1 | 0.00 | 0.00 | 0.00 | 52 | 1012.1 |
| 20260509200533 | 33 | 248 | 16.1 | 24.1 | 0.00 | 0.00 | 0.00 | 51 | 1012.3 |
| 20260509200045 | 34 | 248 | 14.5 | 24.1 | 0.00 | 0.00 | 0.00 | 52 | 1012.4 |
| 20260509195534 | 34 | 236 | 14.5 | 25.7 | 0.00 | 0.00 | 0.00 | 52 | 1012.3 |
| 20260509195034 | 34 | 235 | 14.5 | 25.7 | 0.00 | 0.00 | 0.00 | 53 | 1012.4 |
| 20260509194552 | 33 | 246 | 14.5 | 25.7 | 0.00 | 0.00 | 0.00 | 53 | 1012.3 |